Flag Weather past 2 weeks in Rankin Inlet, Nunavut Territory, Canada

Now
5 °F

Light snow. Passing clouds.


Feels Like: -14 °F
Forecast: 6 / 15 °F
Wind: 17 mph from North

Location: Rankin Inlet

Current Time: Oct 30, 2014 at 7:19:45 AM

Latest Report: Oct 30, 2014 at 6:00 AM


Visibility: 15 mi

Pressure: 30.26 "Hg

Humidity: 85%

Dew point: 1 °F

Location of Rankin InletLocation

Historic Weather in Rankin Inlet — Graph

°F

Rankin Inlet temperature yesterday

Maximum temperature yesterday: 19 °F (at 6:00 PM)
Minimum temperature yesterday: 9 °F (at 9:00 AM)
Average temperature yesterday: 14 °F

Past Weeks' High & Low Weather Summary

 TemperatureHumidityPressure
High34 °F (Oct 19, 10:00 AM)100% (Oct 18, 12:49 PM)30.40 "Hg (Oct 18, 12:49 PM)
Low5 °F (Oct 30, 6:00 AM)69% (Oct 16, 3:00 PM)29.47 "Hg (Oct 21, 5:00 PM)
Average25 °F88%29.97 "Hg
* Reported Oct 15 6:00 AM — Oct 30 6:00 AM, Rankin Inlet, Weather by CustomWeather, © 2014

Note: Actual official high and low records may vary slightly from our data, if they occured in-between our weather recording intervals... More about our weather records

Advertising

Rankin Inlet weather history for previous 24 hours

 ConditionsComfort  
Time TempWeatherWind HumidityBarometerVisibility
6:00 AM
Oct 30
5 °FLight snow. Passing clouds.17 mph85%30.26 "Hg15 mi
5:00 AM10 °FLight snow. Passing clouds.17 mph85%30.23 "Hg10 mi
4:00 AM10 °FLight snow. Passing clouds.22 mph85%30.19 "Hg12 mi
3:00 AM10 °FLight snow. Passing clouds.14 mph92%30.18 "Hg12 mi
2:00 AM12 °FLight snow. Passing clouds.13 mph85%30.16 "Hg8 mi
1:00 AM14 °FLight snow. Passing clouds.10 mph85%30.14 "Hg10 mi
12:00 AM14 °FLight snow. Passing clouds.8 mph92%30.13 "Hg8 mi
11:00 PM
Oct 29
16 °FLight snow. Passing clouds.8 mph93%30.11 "Hg10 mi
10:00 PM16 °FLight snow. Overcast.6 mph93%30.10 "Hg10 mi
9:00 PM18 °FLight snow. Overcast.7 mph86%30.10 "Hg4 mi
8:00 PM19 °FLight snow. Overcast.5 mph93%30.08 "Hg4 mi
7:00 PM19 °FLight snow. Low clouds.3 mph93%30.07 "Hg10 mi
6:00 PM19 °FLight snow. Passing clouds.2 mph86%30.06 "Hg10 mi
5:00 PM18 °FLight snow. Partly sunny.2 mph86%30.06 "Hg8 mi
4:00 PM16 °FLight snow. Partly sunny.No wind93%30.06 "Hg4 mi
3:00 PM16 °FLight snow. Mostly cloudy.No wind86%30.06 "Hg10 mi
2:00 PM14 °FBroken clouds.No wind85%30.06 "Hg10 mi
1:47 PM12 °FBroken clouds.No wind92%30.06 "Hg10 mi
1:00 PM12 °FIce fog.2 mph85%30.06 "Hg1 mi
12:00 PM14 °FIce fog.No wind85%30.06 "Hg0 mi
11:00 AM12 °FIce fog.2 mph92%30.07 "Hg1 mi
10:00 AM10 °FIce fog.2 mph92%30.07 "Hg0 mi
9:00 AM9 °FIce fog.3 mph85%30.09 "Hg0 mi
8:00 AM10 °FIce fog.2 mph85%30.09 "Hg1 mi
7:00 AM10 °FIce fog.3 mph85%30.10 "Hg0 mi
Weather by CustomWeather, © 2014

See weather overviewHow to use our weather pages